Location: Arroyo Retuerta
(40.5469°N, 4.3534°W)
Time: 11:18:55
(UTC+00:00)

Cosmos 1242 Rocket - Pass Details

Date: 01 June 2020
Orbit: 447 x 488 km, 81.2° (Epoch: 05 July)

Event Time Altitude Azimuth Distance (km) Brightness Sun altitude
Exits shadow 22:49:25 56° 323° (NW) 587 3.2 -24.1°
Drops below altitude 10° 22:52:35 10° 3° (N) 1,683 6.2 -24.3°
Sets 22:54:44 0° 7° (N) 2,569 7.2 -24.5°
